STARLINK-30289 (57653 NORAD) Tracking and Keplerian Element Data

This shows tracking and keplerian element data for the satellite.

Feedback or suggestion? Click here.




ElementValue
Catalog57653
NameSTARLINK-30289
Epoch Orbit282
Epoch Day239.16667824
Epoch Year2023
RAAN94.3797
Inclination43.0015
Eccentricity0.0001518
Argument of Perigee258.9945
Mean Anonmoly156.1877
Mean Motion15.85651382
Decay Rate-0.00939146
L11 57653U 23122X 23239.16667824 -.00939146 00000+0 -41684-2 0 9993
L22 57653 43.0015 94.3797 0001518 258.9945 156.1877 15.85651382 2828



Live tracking and technical data element details for STARLINK-30289 (NORAD 57653). STARLINK-30289 can be tracked NOW for your location showing map with azimuth and elevation plus other details from your city location.







IsCatalogInMostPopularTable: catalog: 57653, numindb: 56
Update: records affected: 1



GetName: 57653 STARLINK-30289

Hit Count: updated at: Tue, 26 Sep 2023 11:55:15 GMT